[[{"header":{"parameterUnit":"m.s-1","parameterCategory":1,"la1":30.2991,"la2":30.254,"lo1":-89.0895,"lo2":-89.0444,"dy":0.0017,"dx":0.0017,"nx":28,"ny":28,"refTime":"2025-12-18T03:00:00:Z","depth":0,"parameterNumber":2,"parameterNumberName":"U-component_of_WINDS"},"data":[0,0,0,0,0,0,0,0,0,0,0,0,0,0,0,0,0,0,0,0,0,0,0,0,0,0,0,0,0,0,0,0,0,0,0,0,0,0,0,0,0,0,0,0,0,0,0,0,0,0,0,0,0,0,0,0,0,0,0.1385,0.1383,0,0.1214,0.1212,0.121,0.1122,0.1122,0.1122,0.1122,0.0942,0.0937,0.0932,0,0,0,0,0,0,0,0,0,0,0,0,0,0.1632,0.1628,0.1385,0.1383,0.1381,0.1214,0.1212,0.1209,0.1122,0.1122,0.1122,0.1122,0.0943,0.0938,0.0932,0,0,0,0,0,0,0,0,0,0,0,0,0,0.15,0.1627,0.1386,0.1317,0.1309,0.1215,0.1212,0.1209,0.1122,0.1122,0.1122,0.1122,0.0945,0.0938,0.0931,0.089,0,0,0.091,0.0907,0,0,0,0,0,0,0,0,0.1507,0.149,0.1329,0.1322,0.1313,0.1189,0.1233,0.1102,0.1122,0.1193,0.1122,0.1122,0.1024,0.101,0.0978,0.0882,0.0874,0.0909,0.0905,0.0902,0.09,0,0,0,0,0,0,0,0.1516,0.1497,0.1317,0.1327,0.1317,0.1294,0.1275,0.1208,0.1111,0.1187,0.118,0.1161,0.1019,0.0985,0.0973,0.0871,0.0909,0.0903,0.0899,0.0896,0.0732,0.0732,0,0,0,0,0,0,0.1537,0.1506,0.1323,0.1312,0.1412,0.129,0.1268,0.1229,0.1112,0.1094,0.1162,0.1158,0.0997,0.0982,0.0967,0.0911,0.0902,0.0895,0.0891,0.0732,0.0732,0.0732,0,0,0,0,0,0,0.1543,0.1522,0.133,0.1407,0.1381,0.1285,0.1242,0.1226,0.1192,0.1093,0.1074,0.1145,0.0997,0.0977,0.091,0.0903,0.0892,0.0885,0.0732,0.0732,0.0732,0.0799,0,0,0,0,0,0,0.155,0.1524,0.1509,0.1407,0.1377,0.1277,0.1242,0.1222,0.118,0.1174,0.1072,0.1055,0.0995,0.0921,0.0903,0.0894,0.088,0.0733,0.0732,0.0732,0.0797,0.0802,0.0805,0,0,0,0,0,0.156,0.1533,0.1508,0.1487,0.1355,0.1277,0.1259,0.1192,0.118,0.1163,0.1099,0.1058,0.0907,0.0915,0.0894,0.0882,0.0733,0.0732,0.0732,0.0796,0.0801,0.0805,0,0,0,0,0,0,0.1634,0.1518,0.149,0.143,0.1364,0.1262,0.1239,0.12,0.1135,0.1131,0.105,0.1027,0.0968,0.0918,0.0929,0.0836,0.0816,0.0811,0.0871,0.0875,0.0879,0.0892,0.0874,0,0,0,0,0,0.1644,0.1591,0.1492,0.1449,0.1418,0.1335,0.1298,0.1252,0.118,0.1151,0.1082,0.1013,0.095,0.091,0.0846,0.079,0.0766,0.0771,0.0775,0.0779,0.0776,0.0743,0.0744,0.0731,0.0731,0.0731,0,0,0.1663,0.1593,0.1565,0.1463,0.1406,0.1353,0.1311,0.1256,0.1215,0.1142,0.1076,0.1023,0.094,0.0879,0.0848,0.0835,0.0774,0.0779,0.0782,0.0777,0.0743,0.0744,0.0745,0.0731,0.0731,0.0731,0,0,0.167,0.1612,0.157,0.1516,0.1432,0.1376,0.1367,0.1271,0.1234,0.1166,0.111,0.106,0.0953,0.0896,0.0853,0.0841,0.08,0.0822,0.0842,0.0811,0.0812,0.0812,0.0808,0.0807,0.0819,0.082,0.082,0,0.1704,0.1622,0.1553,0.1502,0.1458,0.1392,0.1349,0.1298,0.1197,0.1168,0.1155,0.102,0.0959,0.0884,0.0882,0.0849,0.0834,0.0833,0.0818,0.0817,0.0817,0.0812,0.081,0.0823,0.0822,0.0822,0.0822,0,0.1668,0.1612,0.1588,0.1495,0.1449,0.1401,0.1324,0.1286,0.1244,0.119,0.1122,0.1047,0.0968,0.0946,0.0905,0.0865,0.086,0.0834,0.0811,0.0822,0.0816,0.0814,0.0827,0.0826,0.0825,0.0824,0,0,0.1716,0.1587,0.1579,0.1536,0.144,0.1394,0.1344,0.1268,0.1237,0.1169,0.1124,0.1036,0.1012,0.0963,0.0914,0.0887,0.0882,0.0863,0.086,0.087,0.0834,0.0855,0.0854,0.0855,0.0854,0.0854,0.0841,0,0.1709,0.1618,0.1555,0.1488,0.1435,0.1372,0.1328,0.1264,0.1212,0.1159,0.1101,0.104,0.1012,0.0982,0.0952,0.0889,0.0874,0.0889,0.0811,0.081,0.0835,0.085,0.0871,0.0863,0.0838,0.0838,0.0837,0,0.1689,0.1627,0.1555,0.1465,0.1441,0.1403,0.1328,0.1279,0.1204,0.1168,0.1116,0.1066,0.1009,0.0992,0.0912,0.0924,0.0889,0.0853,0.0851,0.0841,0.0824,0.0841,0.0859,0.0858,0.0833,0.0833,0.0833,0,0.1732,0.163,0.1574,0.1539,0.1432,0.1407,0.1361,0.1287,0.1246,0.118,0.1152,0.1081,0.1041,0.0986,0.0918,0.0912,0.0845,0.0823,0.0813,0.0815,0.0801,0.0803,0.0814,0.0779,0.0779,0.0779,0.0779,0,0.1732,0.169,0.1592,0.1557,0.1509,0.1437,0.139,0.1339,0.1273,0.1227,0.1167,0.1124,0.1037,0.0983,0.093,0.0872,0.0854,0.0823,0.0809,0.0828,0.0832,0.0803,0.0802,0.0778,0.0778,0.0778,0.0779,0,0.1771,0.1703,0.1638,0.1544,0.1519,0.1488,0.1406,0.137,0.1315,0.1257,0.1239,0.1154,0.1087,0.1015,0.0923,0.0887,0.0832,0.0812,0.0858,0.085,0.0845,0.0847,0.0838,0.0833,0.0802,0.0802,0.0803,0,0.1775,0.1742,0.1645,0.1611,0.1568,0.1513,0.1471,0.1399,0.1357,0.1271,0.1244,0.1174,0.1114,0.1011,0.094,0.087,0.0847,0.0849,0.0836,0.0857,0.0847,0.0851,0.0847,0.0853,0.0854,0.0854,0.0855,0,0.179,0.1758,0.1702,0.1634,0.1586,0.1528,0.1468,0.1443,0.1358,0.1315,0.1248,0.1202,0.111,0.1041,0.0962,0.0913,0.0869,0.086,0.0854,0.0873,0.0901,0.0886,0.0869,0.086,0.086,0.0859,0.0859,0.0859,0.1811,0.1779,0.1707,0.1646,0.1593,0.1539,0.1501,0.1443,0.1386,0.1307,0.1268,0.1201,0.1127,0.1017,0.097,0.0915,0.0901,0.0893,0.089,0.0889,0.0895,0.091,0.09,0.09,0.09,0.09,0.0899,0,0.1823,0.1773,0.1718,0.1637,0.1589,0.1555,0.1487,0.1449,0.1392,0.1327,0.127,0.1193,0.1126,0.105,0.0978,0.0949,0.0927,0.0933,0.0934,0.0923,0.0911,0.0924,0.0951,0.0951,0.0951,0.0951,0.0951,0.0951,0.1823,0.1768,0.1728,0.1646,0.1596,0.1533,0.1497,0.1446,0.1394,0.1312,0.1257,0.1209,0.1139,0.1062,0.0998,0.0977,0.0954,0.0965,0.0938,0.0928,0.0924,0.092,0.0931,0.096,0.096,0.0954,0.0954,0.0954]},{"header":{"parameterUnit":"m.s-1","parameterCategory":1,"la1":30.2991,"la2":30.254,"lo1":-89.0895,"lo2":-89.0444,"dy":0.0017,"dx":0.0017,"nx":28,"ny":28,"refTime":"2025-12-18T03:00:00:Z","depth":0,"parameterNumber":3,"parameterNumberName":"V-component_of_WINDS"},"data":[0,0,0,0,0,0,0,0,0,0,0,0,0,0,0,0,0,0,0,0,0,0,0,0,0,0,0,0,0,0,0,0,0,0,0,0,0,0,0,0,0,0,0,0,0,0,0,0,0,0,0,0,0,0,0,0,0,0,2.2937,2.2937,0,2.2962,2.2963,2.2963,2.3009,2.3009,2.301,2.3011,2.3034,2.3034,2.3034,0,0,0,0,0,0,0,0,0,0,0,0,0,2.2926,2.2926,2.2937,2.2937,2.2937,2.2962,2.2963,2.2963,2.3008,2.3009,2.3011,2.3012,2.3034,2.3034,2.3034,0,0,0,0,0,0,0,0,0,0,0,0,0,2.2939,2.2926,2.2937,2.2963,2.2966,2.2962,2.2963,2.2963,2.3008,2.301,2.3011,2.3012,2.3034,2.3034,2.3034,2.3006,0,0,2.3033,2.3033,0,0,0,0,0,0,0,0,2.2938,2.2939,2.2959,2.2961,2.2964,2.2984,2.2967,2.2977,2.3008,2.2992,2.3011,2.3013,2.3016,2.3017,2.3019,2.3007,2.3008,2.3033,2.3033,2.3033,2.3033,0,0,0,0,0,0,0,2.2937,2.2938,2.2947,2.2959,2.2962,2.2973,2.2977,2.2969,2.2996,2.2993,2.2997,2.2999,2.3018,2.3019,2.302,2.3008,2.3033,2.3033,2.3032,2.3032,2.2976,2.2975,0,0,0,0,0,0,2.2932,2.2937,2.2946,2.2948,2.2954,2.2972,2.2976,2.2976,2.2997,2.3001,2.2998,2.3001,2.3019,2.302,2.3021,2.2991,2.3033,2.3032,2.3032,2.2978,2.2976,2.2975,0,0,0,0,0,0,2.2932,2.2933,2.2945,2.2943,2.2946,2.2971,2.2971,2.2976,2.2978,2.3,2.3005,2.2995,2.302,2.3022,2.301,2.2993,2.3032,2.3032,2.2979,2.2977,2.2975,2.293,0,0,0,0,0,0,2.2931,2.2932,2.2922,2.2943,2.2946,2.2933,2.297,2.2975,2.2977,2.2982,2.2998,2.3002,2.3022,2.301,2.301,2.2993,2.3032,2.2981,2.2978,2.2976,2.2933,2.2927,2.2921,0,0,0,0,0,2.2931,2.2907,2.2921,2.2922,2.2933,2.2932,2.2934,2.2957,2.2976,2.2966,2.2981,2.3002,2.2995,2.3009,2.3008,2.2991,2.2982,2.2979,2.2976,2.2936,2.2928,2.2921,0,0,0,0,0,0,2.2882,2.291,2.2926,2.2908,2.2918,2.294,2.2928,2.2948,2.2951,2.2955,2.2983,2.2986,2.2972,2.298,2.2995,2.2966,2.2992,2.2989,2.2961,2.2954,2.2948,2.2946,2.3031,0,0,0,0,0,2.2869,2.2867,2.2891,2.2873,2.2877,2.2902,2.2902,2.292,2.293,2.2934,2.2948,2.2956,2.2957,2.2956,2.2957,2.2935,2.294,2.2923,2.2917,2.2912,2.2909,2.29,2.2893,2.2965,2.2965,2.2965,0,0,2.2843,2.2858,2.2854,2.2864,2.2873,2.287,2.2905,2.2899,2.2897,2.2933,2.2923,2.2934,2.2946,2.2929,2.2923,2.2936,2.289,2.2908,2.2904,2.2904,2.2896,2.2889,2.2883,2.2963,2.2963,2.2964,0,0,2.2793,2.2804,2.2791,2.28,2.2815,2.2831,2.2828,2.2848,2.2857,2.2848,2.2876,2.2873,2.2872,2.288,2.2884,2.2839,2.286,2.2839,2.2807,2.2798,2.2792,2.2788,2.2773,2.2767,2.2836,2.2835,2.2835,0,2.2757,2.2754,2.2781,2.2775,2.2779,2.2813,2.28,2.2808,2.2821,2.2823,2.2838,2.2839,2.2849,2.2836,2.2825,2.2827,2.2824,2.2837,2.2791,2.2787,2.2782,2.2769,2.2763,2.2833,2.2833,2.2833,2.2834,0,2.2711,2.2708,2.2696,2.271,2.2713,2.2703,2.2729,2.2728,2.2746,2.2761,2.2752,2.2766,2.2771,2.277,2.2786,2.2759,2.2767,2.2786,2.2813,2.2773,2.276,2.2755,2.2829,2.283,2.2831,2.2832,0,0,2.2629,2.2661,2.2656,2.2663,2.2683,2.2681,2.2673,2.268,2.268,2.2688,2.2683,2.2682,2.2701,2.2705,2.2723,2.2715,2.268,2.2735,2.2736,2.2725,2.2653,2.2639,2.2633,2.2694,2.2693,2.2693,2.2653,0,2.2584,2.2574,2.2599,2.2582,2.2581,2.2614,2.2608,2.2619,2.2633,2.2634,2.265,2.265,2.2673,2.2677,2.267,2.2686,2.2666,2.2689,2.269,2.2689,2.2686,2.2626,2.2611,2.2572,2.2648,2.2647,2.2647,0,2.2529,2.2537,2.2521,2.2543,2.2544,2.2537,2.2547,2.2547,2.2561,2.2572,2.2578,2.26,2.2594,2.262,2.2613,2.2628,2.263,2.2638,2.2637,2.2638,2.2666,2.2626,2.2561,2.2555,2.2639,2.264,2.264,0,2.2473,2.2479,2.2471,2.2476,2.2502,2.2497,2.2507,2.2523,2.2526,2.2534,2.2536,2.2543,2.2546,2.2551,2.2574,2.259,2.2565,2.2592,2.2574,2.2573,2.2567,2.2567,2.2501,2.2567,2.2567,2.2567,2.2567,0,2.242,2.2408,2.2446,2.2441,2.243,2.2459,2.2447,2.2461,2.2474,2.2473,2.2501,2.2499,2.2529,2.253,2.2548,2.2541,2.2542,2.2551,2.2556,2.2548,2.2547,2.255,2.2553,2.2566,2.2566,2.2566,2.2567,0,2.2354,2.2379,2.2372,2.2398,2.2405,2.2395,2.2417,2.2414,2.2431,2.2428,2.2429,2.2456,2.2459,2.2483,2.249,2.2502,2.2488,2.2498,2.2484,2.2487,2.2468,2.247,2.2402,2.2395,2.2465,2.2464,2.2464,0,2.2319,2.2312,2.2337,2.2339,2.2349,2.235,2.2354,2.2383,2.2386,2.2403,2.2397,2.2403,2.2409,2.2412,2.2431,2.2438,2.2448,2.2424,2.2449,2.2443,2.2449,2.2449,2.2449,2.2419,2.2418,2.2417,2.2417,0,2.2254,2.2267,2.2272,2.2282,2.2287,2.2295,2.2306,2.2305,2.2337,2.2339,2.2343,2.2348,2.2358,2.2363,2.2373,2.2384,2.2405,2.2409,2.2405,2.2398,2.239,2.2395,2.247,2.241,2.2411,2.2411,2.2411,2.2412,2.2203,2.2199,2.2217,2.2222,2.2234,2.2244,2.2242,2.226,2.2264,2.2275,2.2292,2.2294,2.2309,2.2326,2.2335,2.2337,2.235,2.2344,2.2343,2.2341,2.2338,2.239,2.2339,2.2339,2.2339,2.2339,2.234,0,2.2141,2.2155,2.2159,2.2174,2.2178,2.22,2.2213,2.2216,2.2217,2.2231,2.2237,2.2242,2.2249,2.227,2.2278,2.2276,2.2286,2.2277,2.2277,2.228,2.2325,2.2328,2.2269,2.2269,2.2269,2.2269,2.2269,2.2269,2.2108,2.2103,2.2119,2.2119,2.2133,2.2137,2.2143,2.2152,2.2163,2.2168,2.2174,2.2188,2.2205,2.2216,2.2222,2.2228,2.223,2.2218,2.2227,2.2269,2.2276,2.2283,2.2286,2.2218,2.2218,2.2182,2.2181,2.2181]}]]